Weather History for KTIW - December, 2012

Change the Weather History Date:

Tuesday, December 11, 2012

  Actual Average Record
Temperature  
Mean Temperature 44 °F -  
Max Temperature 46 °F 45 °F 57 °F (2014)
Min Temperature 42 °F 38 °F 28 °F (2000)
Degree Days  
Heating Degree Days 21    
Moisture  
Dew Point 39 °F    
Average Humidity 84    
Maximum Humidity 89    
Minimum Humidity 76    
Precipitation  
Precipitation 0.12 in - - ()
Sea Level Pressure  
Sea Level Pressure 29.76 in    
Wind  
Wind Speed 11 mph (South)    
Max Wind Speed 21 mph    
Max Gust Speed 26 mph    
Visibility 10 miles    
Events Rain    
Averages and records for this station are not official NWS values.
T = Trace of Precipitation, MM = Missing Value Source: NWS Daily Summary

Daily Weather History Graph

Daily Weather History Graph

Search for Another Location

Airport or City:

Trip Planner

Search our weather history database for the weather conditions in past years. The results will help you decide how hot, cold, wet, or windy it might be!

Date:

Astronomy

Dec. 11, 2012 Rise Set
Actual Time 7:47 AM PST 4:20 PM PST
Civil Twilight 7:12 AM PST 4:55 PM PST
Nautical Twilight 6:33 AM PST 5:34 PM PST
Astronomical Twilight 5:55 AM PST 6:11 PM PST
Moon 5:45 AM PST (12/11) 3:06 PM PST (12/11)
Length of Visible Light 9h 43m
Length of Day
8h 32m
Waning Crescent, 4% of the Moon is Illuminated
Dec 11
Waning Crescent
Dec 13
New
Dec 19
First Quarter
Dec 28
Full
Jan 4
Last Quarter

Hourly Weather History & Observations

Time (PST) Temp. Windchill Dew Point Humidity Pressure Visibility Wind Dir Wind Speed Gust Speed Precip Events Conditions
12:01 AM 42.8 °F 36.6 °F 39.2 °F 87% 30.11 in 10.0 mi South 11.5 mph - N/A   Overcast
12:42 AM 42.8 °F 36.6 °F 39.2 °F 87% 30.06 in 10.0 mi South 11.5 mph - N/A   Overcast
12:53 AM 43.0 °F 37.7 °F 39.9 °F 89% 30.06 in 10.0 mi South 9.2 mph - N/A   Overcast
1:17 AM 42.8 °F 38.0 °F 39.2 °F 87% 30.03 in 10.0 mi SSW 8.1 mph - N/A   Overcast
1:53 AM 43.0 °F 36.8 °F 39.0 °F 86% 30.01 in 10.0 mi SSW 11.5 mph 18.4 mph N/A   Overcast
2:48 AM 42.8 °F 37.0 °F 39.2 °F 87% 29.96 in 10.0 mi SSW 10.4 mph - N/A   Overcast
2:53 AM 42.1 °F 36.1 °F 39.0 °F 89% 29.97 in 10.0 mi SSW 10.4 mph 17.3 mph N/A   Overcast
3:53 AM 43.0 °F 37.2 °F 39.0 °F 86% 29.95 in 10.0 mi SW 10.4 mph 19.6 mph N/A   Overcast
4:38 AM 42.8 °F 37.5 °F 37.4 °F 81% 29.91 in 10.0 mi South 9.2 mph - N/A   Overcast
4:53 AM 42.1 °F 36.1 °F 39.0 °F 89% 29.91 in 10.0 mi South 10.4 mph - N/A   Overcast
5:08 AM 42.8 °F 35.8 °F 39.2 °F 87% 29.89 in 10.0 mi South 13.8 mph - N/A   Overcast
5:48 AM 42.8 °F 36.2 °F 39.2 °F 87% 29.86 in 10.0 mi South 12.7 mph - N/A   Overcast
5:53 AM 43.0 °F 36.4 °F 39.0 °F 86% 29.87 in 10.0 mi South 12.7 mph - N/A   Overcast
6:21 AM 42.8 °F 36.2 °F 39.2 °F 87% 29.85 in 10.0 mi South 12.7 mph 20.7 mph N/A   Overcast
6:37 AM 42.8 °F 35.8 °F 39.2 °F 87% 29.84 in 8.0 mi South 13.8 mph - N/A   Overcast
6:53 AM 42.1 °F 35.7 °F 39.0 °F 89% 29.84 in 10.0 mi South 11.5 mph - N/A   Overcast
7:12 AM 42.8 °F 35.4 °F 39.2 °F 87% 29.81 in 10.0 mi South 15.0 mph - N/A   Overcast
7:53 AM 43.0 °F 36.8 °F 39.0 °F 86% 29.79 in 10.0 mi South 11.5 mph - N/A   Overcast
8:04 AM 42.8 °F 36.6 °F 39.2 °F 87% 29.78 in 10.0 mi South 11.5 mph 18.4 mph N/A   Overcast
8:53 AM 44.1 °F 39.5 °F 39.0 °F 82% 29.76 in 10.0 mi South 8.1 mph - N/A   Overcast
9:53 AM 44.1 °F 38.6 °F 39.9 °F 85% 29.74 in 10.0 mi SSW 10.4 mph 19.6 mph N/A   Overcast
10:53 AM 45.0 °F 38.2 °F 39.0 °F 80% 29.71 in 10.0 mi South 15.0 mph 21.9 mph 0.01 in Rain Light Rain
11:53 AM 45.0 °F 38.5 °F 39.0 °F 80% 29.66 in 10.0 mi South 13.8 mph 20.7 mph 0.00 in   Overcast
12:53 PM 46.0 °F 40.6 °F 39.0 °F 76% 29.63 in 10.0 mi South 11.5 mph 19.6 mph 0.00 in Rain Light Rain
1:15 PM 44.6 °F 38.4 °F 39.2 °F 81% 29.61 in 6.0 mi South 12.7 mph - 0.02 in Rain Light Rain
1:53 PM 45.0 °F 39.7 °F 39.9 °F 82% 29.60 in 9.0 mi South 10.4 mph - 0.07 in Rain Light Rain
2:53 PM 44.1 °F 38.1 °F 39.0 °F 82% 29.57 in 10.0 mi South 11.5 mph 21.9 mph 0.04 in Rain Light Rain
3:48 PM 44.6 °F 39.2 °F 39.2 °F 81% 29.55 in 10.0 mi South 10.4 mph - 0.00 in   Overcast
3:53 PM 44.1 °F 38.6 °F 37.9 °F 79% 29.56 in 10.0 mi South 10.4 mph - 0.00 in   Overcast
4:53 PM 44.1 °F 37.1 °F 37.9 °F 79% 29.56 in 10.0 mi South 15.0 mph - N/A   Overcast
5:53 PM 44.1 °F 35.7 °F 37.9 °F 79% 29.57 in 10.0 mi South 20.7 mph 26.5 mph N/A   Overcast
6:53 PM 43.0 °F 36.0 °F 37.9 °F 82% 29.57 in 10.0 mi South 13.8 mph 20.7 mph N/A   Overcast
7:53 PM 43.0 °F 36.8 °F 39.0 °F 86% 29.57 in 10.0 mi SSW 11.5 mph 18.4 mph N/A   Overcast
8:53 PM 44.1 °F 38.1 °F 39.0 °F 82% 29.59 in 10.0 mi South 11.5 mph - N/A   Overcast
9:53 PM 43.0 °F 37.2 °F 39.0 °F 86% 29.60 in 10.0 mi South 10.4 mph - N/A   Overcast
10:07 PM 42.8 °F 37.0 °F 39.2 °F 87% 29.59 in 10.0 mi South 10.4 mph - N/A   Overcast
10:53 PM 43.0 °F 37.2 °F 39.0 °F 86% 29.61 in 10.0 mi SSW 10.4 mph - N/A   Overcast
11:22 PM 44.6 °F 40.2 °F 39.2 °F 81% 29.61 in 10.0 mi South 8.1 mph - N/A   Overcast
11:53 PM 43.0 °F 36.8 °F 39.0 °F 86% 29.62 in 10.0 mi SSW 11.5 mph - N/A   Overcast